Location: Coopersdale
(40.3556°N, 78.9372°W)
Time: 03:37:01
(UTC+00:00)

Tiros 1 despin weight - Pass Details

Date: 22 January 2021
Orbit: 593 x 642 km, 48.2° (Epoch: 02 March)

Event Time Altitude Azimuth Distance (km) Brightness Sun altitude
Rises 00:18:17 0° 296° (WNW) 2,851 ? -22.1°
Reaches altitude 10° 00:20:45 10° 306° (NW) 1,940 ? -22.6°
Enters shadow 00:24:23 33° 359° (N) 1,006 ? -23.3°
Maximum altitude 00:24:49 34° 12° (NNE) 988 - -23.3°
Drops below altitude 10° 00:28:51 10° 78° (ENE) 1,923 - -24.1°
Sets 00:31:18 0° 88° (E) 2,822 - -24.6°
